Date String (YYYY-MM-DD hh:mm:ss) UTC,Instrument flags,Ambient pressure (hPa),Sample flow (lpm),Bypass flow (lpm),Sample temperature (°C),Ambient temperature (°C),ASC tube jacket temperature (°C),LED temperature (°C),Box temperature (°C),Sample RH (%),Span deviation,Mass concentration (μg/m³),Mass concentration (μg/m³),Mass concentration (μg/m³)
DateTimeUTC,F1_M11,P_M11,Q1_M11,Q2_M11,T1_M11,T2_M11,T3_M11,T4_M11,T5_M11,U1_M11,ZSPAN_M11,X0_M11,X2_M11,X1_M11
2022-02-27 21:00:00,,0830.4,4.99,0.00,26.8,26.1,00.0,35.7,28.6,06.9,0003.1,0007.68,0005.05,0004.83
2022-02-27 21:01:00,,0830.4,4.99,0.00,26.8,26.1,00.0,35.7,28.6,06.7,0000.9,0008.60,0005.05,0004.82
2022-02-27 21:02:00,,0830.4,5.01,0.00,26.8,26.1,00.0,35.7,28.6,06.7,0000.0,0008.63,0005.08,0004.84
2022-02-27 21:03:00,,0830.3,5.01,0.00,26.8,26.1,00.0,35.7,28.7,06.7,0000.0,0008.78,0005.15,0004.90
2022-02-27 21:04:00,,0830.3,4.99,0.00,26.8,26.2,00.0,35.7,28.7,06.8,0000.0,0009.11,0005.21,0004.97
2022-02-27 21:05:00,,0830.3,4.99,0.00,26.8,26.2,00.0,35.7,28.6,06.8,0000.0,0009.28,0005.25,0005.01
2022-02-27 21:06:00,,0830.3,5.00,0.00,26.8,26.2,00.0,35.7,28.7,07.2,0000.0,0009.39,0005.31,0005.06
2022-02-27 21:07:00,,0830.3,5.00,0.00,26.9,26.2,00.0,35.8,28.7,07.6,0000.0,0009.45,0005.36,0005.10
2022-02-27 21:08:00,,0830.3,5.00,0.00,26.9,26.2,00.0,35.8,28.7,06.7,0000.0,0009.55,0005.39,0005.12
2022-02-27 21:09:00,,0830.2,5.01,0.00,26.9,26.2,00.0,35.8,28.7,06.6,0000.0,0009.65,0005.48,0005.20
2022-02-27 21:10:00,,0830.2,5.00,0.00,26.9,26.2,00.0,35.8,28.7,06.6,0000.0,0009.80,0005.59,0005.29
2022-02-27 21:11:00,,0830.2,5.00,0.00,26.9,26.2,00.0,35.8,28.7,07.2,0000.0,0009.75,0005.67,0005.37
2022-02-27 21:12:00,,0830.1,4.99,0.00,26.9,26.2,00.0,35.8,28.7,07.2,0000.0,0008.99,0005.78,0005.46
2022-02-27 21:13:00,,0830.1,5.00,0.00,26.9,26.3,00.0,35.8,28.8,07.0,0000.0,0009.01,0005.85,0005.53
2022-02-27 21:14:00,,0830.1,5.00,0.00,27.0,26.3,00.0,35.8,28.8,07.5,0000.0,0009.02,0005.88,0005.58
2022-02-27 21:15:00,,0830.1,5.00,0.00,27.0,26.3,00.0,35.8,28.8,06.9,0000.0,0008.75,0005.94,0005.62
2022-02-27 21:16:00,,0830.1,5.01,0.00,27.0,26.3,00.0,35.8,28.8,06.8,0000.0,0008.71,0006.02,0005.70
2022-02-27 21:17:00,,0830.1,5.00,0.00,27.0,26.3,00.0,35.8,28.8,07.0,0000.0,0008.80,0006.12,0005.79
2022-02-27 21:18:00,,0830.1,5.00,0.00,27.0,26.3,00.0,35.9,28.8,07.0,0000.0,0008.91,0006.21,0005.87
2022-02-27 21:19:00,,0830.1,4.99,0.00,27.0,26.3,00.0,35.9,28.8,07.9,0000.0,0008.92,0006.26,0005.94
2022-02-27 21:20:00,,0830.1,5.00,0.00,27.0,26.3,00.0,35.9,28.8,07.5,0000.0,0008.93,0006.25,0005.92
2022-02-27 21:21:00,,0830.1,5.01,0.00,27.0,26.3,00.0,35.9,28.8,07.5,0000.0,0009.17,0006.26,0005.95
2022-02-27 21:22:00,,0830.1,5.00,0.00,27.0,26.3,00.0,35.9,28.8,07.4,0000.0,0009.43,0006.28,0005.97
2022-02-27 21:23:00,,0830.1,5.00,0.00,27.0,26.3,00.0,35.9,28.8,07.9,0000.0,0009.43,0006.25,0005.96
2022-02-27 21:24:00,,0830.1,4.99,0.00,27.0,26.3,00.0,35.9,28.8,08.3,0000.0,0009.52,0006.30,0005.98
2022-02-27 21:25:00,,0830.1,5.00,0.00,27.0,26.3,00.0,35.9,28.9,07.6,0000.0,0009.59,0006.34,0006.00
2022-02-27 21:26:00,,0830.0,5.00,0.00,27.0,26.3,00.0,35.9,28.9,07.2,0000.0,0009.59,0006.36,0006.04
2022-02-27 21:27:00,,0830.1,5.00,0.00,27.1,26.4,00.0,35.9,28.9,07.7,0000.0,0009.63,0006.37,0006.04
2022-02-27 21:28:00,,0830.0,5.01,0.00,27.1,26.4,00.0,35.9,28.9,07.5,0000.0,0009.62,0006.35,0006.03
2022-02-27 21:29:00,,0830.0,4.99,0.00,27.1,26.4,00.0,35.9,28.9,07.1,0000.0,0009.58,0006.36,0006.03
2022-02-27 21:30:00,,0830.0,4.99,0.00,27.1,26.4,00.0,35.9,28.9,07.0,0000.0,0009.68,0006.41,0006.04
2022-02-27 21:31:00,,0830.0,5.00,0.00,27.1,26.5,00.0,36.0,28.9,07.1,0000.0,0009.77,0006.47,0006.08
2022-02-27 21:32:00,,0830.0,5.00,0.00,27.1,26.5,00.0,36.0,29.0,07.2,0000.0,0009.59,0006.50,0006.09
2022-02-27 21:33:00,,0830.1,5.00,0.00,27.2,26.5,00.0,36.0,29.0,07.4,0000.0,0009.38,0006.54,0006.11
2022-02-27 21:34:00,,0830.0,5.01,0.00,27.2,26.5,00.0,36.0,29.0,07.0,0000.0,0009.47,0006.62,0006.15
2022-02-27 21:35:00,,0830.1,5.00,0.00,27.2,26.5,00.0,36.0,29.0,07.2,0000.0,0009.49,0006.64,0006.19
2022-02-27 21:36:00,,0830.1,5.01,0.00,27.2,26.5,00.0,36.0,29.0,07.2,0000.0,0009.47,0006.66,0006.23
2022-02-27 21:37:00,,0830.0,5.00,0.00,27.1,26.5,00.0,36.0,29.0,07.2,0000.0,0009.51,0006.68,0006.25
2022-02-27 21:38:00,,0830.0,4.99,0.00,27.1,26.5,00.0,36.0,29.0,07.3,0000.0,0009.48,0006.68,0006.27
2022-02-27 21:39:00,,0830.1,4.99,0.00,27.2,26.5,00.0,36.0,29.0,07.3,0000.0,0009.48,0006.71,0006.30
2022-02-27 21:40:00,,0830.1,5.00,0.00,27.2,26.5,00.0,36.0,29.0,07.5,0000.0,0009.52,0006.73,0006.31
2022-02-27 21:41:00,,0830.0,5.01,0.00,27.2,26.5,00.0,36.1,29.0,07.3,0000.0,0009.47,0006.71,0006.32
2022-02-27 21:42:00,,0830.1,4.99,0.00,27.2,26.5,00.0,36.1,29.0,07.5,0000.0,0009.43,0006.68,0006.32
2022-02-27 21:43:00,,0830.1,4.99,0.00,27.2,26.5,00.0,36.1,29.0,07.4,0000.5,0009.41,0006.68,0006.35
2022-02-27 21:44:00,,0830.1,5.01,0.00,27.2,26.5,00.0,36.1,29.0,07.6,0002.1,0009.40,0006.69,0006.38
2022-02-27 21:45:00,,0830.1,4.99,0.00,27.2,26.5,00.0,36.1,29.0,07.5,0002.3,0009.37,0006.69,0006.38
2022-02-27 21:46:00,,0830.2,4.99,0.00,27.2,26.5,00.0,36.1,29.1,07.9,0003.0,0009.40,0006.71,0006.38
2022-02-27 21:47:00,,0830.1,5.00,0.00,27.2,26.6,00.0,36.1,29.1,07.7,0002.6,0009.42,0006.73,0006.38
2022-02-27 21:48:00,,0830.2,5.01,0.00,27.2,26.6,00.0,36.1,29.1,07.6,0003.2,0009.44,0006.76,0006.41
2022-02-27 21:49:00,,0830.1,5.00,0.00,27.3,26.6,00.0,36.1,29.1,07.8,0002.9,0009.42,0006.78,0006.43
2022-02-27 21:50:00,,0830.2,4.99,0.00,27.3,26.6,00.0,36.1,29.2,07.3,0003.0,0009.38,0006.78,0006.46
2022-02-27 21:51:00,,0830.2,5.00,0.00,27.3,26.6,00.0,36.1,29.2,07.2,0002.8,0009.37,0006.79,0006.48
2022-02-27 21:52:00,,0830.2,5.00,0.00,27.3,26.7,00.0,36.2,29.2,07.5,0002.2,0009.57,0006.86,0006.53
2022-02-27 21:53:00,,0830.2,5.00,0.00,27.3,26.7,00.0,36.2,29.2,07.5,0002.2,0009.91,0006.94,0006.57
2022-02-27 21:54:00,,0830.2,5.00,0.00,27.3,26.7,00.0,36.2,29.2,07.5,0003.2,0009.95,0007.00,0006.61
2022-02-27 21:55:00,,0830.2,5.02,0.00,27.4,26.7,00.0,36.2,29.2,07.8,0003.7,0009.96,0007.03,0006.64
2022-02-27 21:56:00,,0830.2,5.00,0.00,27.4,26.7,00.0,36.2,29.2,07.7,0004.3,0009.85,0007.01,0006.66
2022-02-27 21:57:00,,0830.2,4.99,0.00,27.4,26.7,00.0,36.2,29.2,07.6,0004.6,0009.76,0007.01,0006.70
2022-02-27 21:58:00,,0830.2,5.00,0.00,27.4,26.7,00.0,36.2,29.2,07.6,0004.5,0009.83,0007.04,0006.73
2022-02-27 21:59:00,,0830.2,5.01,0.00,27.4,26.7,00.0,36.2,29.2,07.6,0004.3,0009.93,0007.08,0006.76
